Hourly Data Report for April 22, 2021

MIRAMICHI RCS
NEW BRUNSWICK
Current Station Operator: ECCC - MSC

47°00'34.000" N
65°27'54.000" W
33.00 m
8100989
71744
ACQ

Download Data

Hourly Data (April 2021)
Hourly Data Report for April 22, 2021
TIME
LST
Temp Definition
°C
Dew Point Definition
°C
Rel Hum Definition
%
Precip. Amount Definition
mm

Wind Dir Definition
10's deg

Wind Spd Definition
km/h
Visibility Definition
km
Stn Press Definition
kPa
Hmdx Definition


Wind Chill Definition


Weather Definition


00:00 5.5 5.3 98 LegendMM 8 8   99.33     LegendNANA
01:00 6.5 6.2 98 LegendMM 9 10   99.21     LegendNANA
02:00 6.9 6.5 98 LegendMM 8 11   99.01     LegendNANA
03:00 8.2 7.9 98 LegendMM 12 10   98.86     LegendNANA
04:00 9.3 8.7 96 LegendMM 13 18   98.70     LegendNANA
05:00 9.8 9.2 96 LegendMM 14 17   98.55     LegendNANA
06:00 10.3 9.5 95 LegendMM 13 15   98.44     LegendNANA
07:00 10.8 10.0 95 LegendMM 14 21   98.33     LegendNANA
08:00 11.4 10.6 95 LegendMM 14 15   98.16     LegendNANA
09:00 11.6 10.5 93 LegendMM 17 16   98.04     LegendNANA
10:00 11.4 10.1 92 LegendMM 21 22   97.96     LegendNANA
11:00 12.0 8.4 78 LegendMM 20 32   97.90     LegendNANA
12:00 11.0 5.8 70 LegendMM 20 33   97.82     LegendNANA
13:00 10.6 4.0 63 LegendMM 21 33   97.80     LegendNANA
14:00 7.0 2.8 75 LegendMM 21 40   97.80     LegendNANA
15:00 4.6 2.0 83 LegendMM 22 38   97.84     LegendNANA
16:00 3.8 0.8 81 LegendMM 22 37   97.89     LegendNANA
17:00 1.8 -0.5 84 LegendMM 23 38   97.97     LegendNANA
18:00 1.4 -1.3 82 LegendMM 23 37   98.02     LegendNANA
19:00 0.7 -1.1 88 LegendMM 23 32   98.07     LegendNANA
20:00 0.7 -1.8 83 LegendMM 23 29   98.13     LegendNANA
21:00 1.0 -2.9 75 LegendMM 23 38   98.15     LegendNANA
22:00 0.7 -3.3 74 LegendMM 23 35   98.16     LegendNANA
23:00 0.7 -3.8 72 LegendMM 23 39   98.16     LegendNANA

Notes on Data Quality.

Legend

  • E = Estimated
  • M = Missing
  • NA = Not Available*
  • [empty] = Indicates an unobserved value
Date modified: